Total_Precipitation_Accumulation
0.24 0.22 0.19 0.18 0.19 0.18 0.19 0.24 0.29 0.32 0.34 0.42 0.53 0.62 0.72 0.90 1.11 1.17 1.22 1.36 1.38 1.40 1.55 1.65 1.68 1.61 1.52 1.57 1.75 2.09 1.98 1.62 1.45 1.47 1.35 1.19 1.12 1.15 1.10 1.12 1.20 1.15 1.13
0.19 0.15 0.14 0.14 0.13 0.11 0.12 0.18 0.27 0.36 0.42 0.48 0.62 0.77 1.00 1.11 1.26 1.41 1.39 1.42 1.47 1.50 1.58 1.79 1.90 1.84 1.81 1.91 1.93 2.14 2.28 2.02 1.81 1.78 1.95 1.74 1.52 1.19 0.96 1.00 1.06 1.10 1.19
0.17 0.12 0.11 0.11 0.11 0.09 0.11 0.18 0.32 0.51 0.72 0.82 1.05 1.33 1.58 1.66 1.59 1.58 1.62 1.61 1.64 1.70 1.68 1.80 2.00 1.96 1.91 1.95 2.13 2.38 2.64 2.57 2.33 2.11 2.22 1.97 1.75 1.61 1.12 0.89 0.95 1.05 1.18
0.23 0.17 0.15 0.13 0.12 0.13 0.23 0.38 0.62 0.92 1.17 1.32 1.52 1.72 1.83 1.87 1.80 1.82 1.80 1.78 1.70 1.63 1.63 1.75 1.95 2.09 2.16 2.21 2.27 2.28 2.58 2.78 2.62 2.50 2.21 1.93 1.80 1.88 1.63 1.16 0.93 0.99 1.06
0.27 0.27 0.28 0.27 0.32 0.42 0.61 0.89 1.15 1.39 1.53 1.58 1.68 1.88 2.04 2.19 2.20 2.09 1.94 1.82 1.79 1.72 1.63 1.68 1.76 1.80 1.87 1.99 2.12 2.20 2.40 2.53 2.67 2.65 2.48 2.24 2.08 1.65 1.62 1.61 1.34 1.10 0.92
0.34 0.42 0.53 0.63 0.76 0.86 1.03 1.24 1.39 1.53 1.52 1.52 1.58 1.71 1.90 2.06 2.08 2.10 2.07 1.93 1.79 1.69 1.59 1.55 1.65 1.68 1.68 1.79 1.91 2.01 2.23 2.39 2.52 2.59 2.47 2.33 2.26 2.01 1.76 1.58 1.54 1.43 1.14
0.45 0.62 0.78 0.92 1.02 1.13 1.23 1.26 1.25 1.29 1.30 1.32 1.36 1.44 1.50 1.54 1.60 1.70 1.63 1.50 1.37 1.31 1.31 1.24 1.31 1.44 1.49 1.66 1.74 1.68 1.73 1.89 2.10 2.29 2.31 2.28 2.18 2.15 2.07 1.91 1.75 1.55 1.23
0.71 0.82 0.92 1.01 1.05 1.18 1.23 1.18 1.15 1.13 1.06 1.00 1.06 1.07 1.12 1.17 1.20 1.22 1.18 1.09 1.04 1.01 0.97 0.97 0.98 1.05 1.13 1.34 1.56 1.54 1.55 1.61 1.70 1.80 2.06 2.15 2.10 2.14 1.97 1.84 1.86 1.67 1.41
0.97 1.13 1.12 1.02 0.93 0.97 1.05 1.03 0.98 0.93 0.85 0.79 0.82 0.85 0.92 0.95 0.93 0.91 0.86 0.84 0.78 0.79 0.76 0.78 0.86 0.92 0.92 1.02 1.15 1.33 1.41 1.47 1.55 1.58 1.74 1.82 1.89 1.88 1.75 1.76 1.82 1.69 1.44
1.03 1.30 1.43 1.30 1.02 0.83 0.85 0.82 0.78 0.81 0.80 0.76 0.77 0.77 0.70 0.65 0.66 0.69 0.63 0.62 0.67 0.71 0.70 0.67 0.68 0.74 0.77 0.87 0.98 1.04 1.14 1.21 1.37 1.54 1.67 1.69 1.72 1.75 1.68 1.66 1.78 1.75 1.53
1.19 1.34 1.39 1.25 1.07 0.79 0.72 0.71 0.67 0.71 0.77 0.71 0.72 0.72 0.61 0.49 0.47 0.47 0.45 0.45 0.49 0.55 0.56 0.59 0.65 0.65 0.67 0.69 0.70 0.75 0.81 0.88 0.99 1.04 1.17 1.38 1.57 1.62 1.63 1.68 1.74 1.77 1.63
0.84 0.87 0.98 1.00 0.93 0.79 0.72 0.78 0.82 0.81 0.73 0.66 0.62 0.58 0.51 0.44 0.43 0.41 0.38 0.40 0.45 0.47 0.49 0.54 0.58 0.58 0.64 0.66 0.66 0.66 0.68 0.77 0.85 0.85 0.86 0.97 1.18 1.34 1.47 1.56 1.59 1.65 1.63
0.62 0.55 0.66 0.80 0.75 0.68 0.71 0.79 0.93 0.93 0.84 0.72 0.61 0.57 0.53 0.49 0.47 0.42 0.41 0.41 0.48 0.59 0.62 0.61 0.64 0.62 0.64 0.64 0.65 0.68 0.69 0.72 0.76 0.79 0.81 0.87 0.97 1.13 1.22 1.33 1.44 1.52 1.63
0.49 0.43 0.42 0.44 0.43 0.45 0.49 0.61 0.87 1.05 1.02 0.92 0.78 0.69 0.61 0.54 0.48 0.44 0.43 0.42 0.45 0.51 0.54 0.63 0.71 0.79 0.83 0.82 0.78 0.77 0.75 0.70 0.72 0.78 0.85 0.87 0.87 0.99 1.21 1.34 1.41 1.43 1.53
0.31 0.26 0.23 0.23 0.24 0.29 0.36 0.46 0.73 0.93 0.94 0.94 0.81 0.67 0.56 0.45 0.43 0.46 0.49 0.46 0.41 0.44 0.45 0.53 0.62 0.72 0.81 0.86 0.86 0.72 0.61 0.62 0.67 0.68 0.69 0.76 0.84 0.86 1.02 1.19 1.41 1.42 1.52
0.24 0.23 0.20 0.17 0.14 0.14 0.19 0.28 0.47 0.63 0.69 0.76 0.72 0.56 0.50 0.44 0.40 0.42 0.48 0.49 0.39 0.38 0.40 0.44 0.42 0.45 0.50 0.66 0.66 0.54 0.45 0.50 0.60 0.67 0.69 0.69 0.70 0.73 0.77 0.82 1.06 1.25 1.36
0.28 0.29 0.27 0.24 0.21 0.17 0.16 0.18 0.25 0.34 0.41 0.46 0.47 0.37 0.35 0.42 0.43 0.45 0.44 0.38 0.31 0.34 0.36 0.32 0.28 0.30 0.34 0.39 0.38 0.43 0.45 0.48 0.52 0.61 0.70 0.74 0.72 0.78 0.87 0.83 0.87 0.96 1.03
0.31 0.27 0.24 0.22 0.19 0.16 0.15 0.15 0.17 0.20 0.22 0.22 0.18 0.15 0.22 0.32 0.33 0.31 0.28 0.24 0.23 0.29 0.36 0.31 0.29 0.33 0.30 0.32 0.37 0.40 0.43 0.56 0.62 0.61 0.62 0.73 0.79 0.84 1.00 0.99 1.06 0.99 0.89
0.13 0.09 0.08 0.07 0.06 0.06 0.06 0.05 0.04 0.04 0.04 0.04 0.04 0.05 0.07 0.08 0.07 0.07 0.08 0.12 0.16 0.20 0.19 0.23 0.37 0.38 0.34 0.42 0.40 0.35 0.42 0.55 0.62 0.58 0.61 0.73 0.83 0.97 1.08 1.13 1.16 1.05 0.95
0.02 0.03 0.04 0.04 0.03 0.03 0.04 0.03 0.02 0.03 0.02 0.02 0.02 0.02 0.03 0.03 0.02 0.03 0.02 0.04 0.07 0.10 0.11 0.14 0.27 0.34 0.36 0.36 0.28 0.28 0.40 0.53 0.61 0.62 0.63 0.85 0.86 0.94 1.00 1.06 1.18 1.20 1.06
0.01 0.03 0.03 0.04 0.03 0.03 0.02 0.02 0.01 0.02 0.03 0.03 0.02 0.01 0.02 0.02 0.03 0.04 0.03 0.02 0.02 0.03 0.06 0.10 0.14 0.15 0.16 0.16 0.17 0.24 0.31 0.38 0.50 0.58 0.62 0.60 0.72 0.75 0.85 0.97 1.05 1.26 1.14
0.02 0.03 0.03 0.03 0.04 0.04 0.02 0.02 0.01 0.02 0.02 0.02 0.02 0.02 0.02 0.02 0.02 0.05 0.04 0.03 0.02 0.02 0.03 0.06 0.10 0.09 0.08 0.07 0.10 0.13 0.17 0.24 0.32 0.40 0.52 0.52 0.60 0.65 0.73 0.75 0.92 1.10 1.08
0.02 0.02 0.02 0.03 0.03 0.04 0.04 0.03 0.02 0.03 0.04 0.04 0.03 0.02 0.02 0.02 0.02 0.03 0.03 0.03 0.03 0.02 0.03 0.05 0.08 0.09 0.10 0.09 0.09 0.11 0.14 0.19 0.23 0.26 0.41 0.49 0.56 0.55 0.55 0.67 0.85 0.91 0.96
0.01 0.01 0.01 0.02 0.02 0.03 0.04 0.04 0.04 0.06 0.05 0.04 0.04 0.04 0.04 0.03 0.03 0.03 0.03 0.03 0.02 0.02 0.03 0.04 0.07 0.11 0.13 0.09 0.09 0.13 0.17 0.20 0.22 0.25 0.38 0.50 0.57 0.55 0.55 0.62 0.75 0.81 0.94
0.01 0.01 0.01 0.01 0.01 0.02 0.03 0.04 0.04 0.05 0.06 0.05 0.05 0.04 0.05 0.05 0.05 0.04 0.04 0.03 0.03 0.03 0.03 0.04 0.06 0.06 0.07 0.08 0.12 0.15 0.20 0.23 0.24 0.33 0.50 0.63 0.65 0.65 0.61 0.65 0.75 0.74 0.72
0.01 0.01 0.01 0.02 0.02 0.02 0.02 0.03 0.03 0.04 0.05 0.05 0.05 0.04 0.04 0.05 0.05 0.05 0.05 0.04 0.04 0.04 0.04 0.04 0.05 0.05 0.07 0.09 0.14 0.18 0.23 0.25 0.35 0.52 0.69 0.81 0.89 0.88 0.80 0.76 0.75 0.69 0.67